Year,Month,Day,Hour,Minute,Value (Times are PST for temperature in C)
2014,05,27,00,00,10.70
2014,05,27,00,01,10.70
2014,05,27,00,02,10.60
2014,05,27,00,03,10.60
2014,05,27,00,04,10.60
2014,05,27,00,05,10.60
2014,05,27,00,06,10.60
2014,05,27,00,07,10.60
2014,05,27,00,08,10.40
2014,05,27,00,09,10.40
2014,05,27,00,10,10.40
2014,05,27,00,11,10.40
2014,05,27,00,12,10.40
2014,05,27,00,13,10.40
2014,05,27,00,14,10.40
2014,05,27,00,15,10.40
2014,05,27,00,16,10.40
2014,05,27,00,17,10.40
2014,05,27,00,18,10.40
2014,05,27,00,19,10.40
2014,05,27,00,20,10.40
2014,05,27,00,21,10.40
2014,05,27,00,22,10.40
2014,05,27,00,23,10.40
2014,05,27,00,24,10.40
2014,05,27,00,25,10.40
2014,05,27,00,26,10.40
2014,05,27,00,27,10.40
2014,05,27,00,28,10.40
2014,05,27,00,29,10.40
2014,05,27,00,30,10.40
2014,05,27,00,31,10.40
2014,05,27,00,32,10.40
2014,05,27,00,33,10.40
2014,05,27,00,34,10.40
2014,05,27,00,35,10.40
2014,05,27,00,36,10.40
2014,05,27,00,37,10.40
2014,05,27,00,38,10.40
2014,05,27,00,39,10.40
2014,05,27,00,40,10.40
2014,05,27,00,41,10.40
2014,05,27,00,42,10.40
2014,05,27,00,43,10.40
2014,05,27,00,44,10.40
2014,05,27,00,45,10.40
2014,05,27,00,46,10.40
2014,05,27,00,47,10.40
2014,05,27,00,48,10.40
2014,05,27,00,49,10.40
2014,05,27,00,50,10.40
2014,05,27,00,51,10.40
2014,05,27,00,52,10.40
2014,05,27,00,53,10.40
2014,05,27,00,54,10.40
2014,05,27,00,55,10.40
2014,05,27,00,56,10.40
2014,05,27,00,57,10.40
2014,05,27,00,58,10.40
2014,05,27,00,59,10.40
2014,05,27,01,00,10.40
2014,05,27,01,01,10.40
2014,05,27,01,02,10.40
2014,05,27,01,03,10.40
2014,05,27,01,04,10.40
2014,05,27,01,05,10.40
2014,05,27,01,06,10.40
2014,05,27,01,07,10.40
2014,05,27,01,08,10.40
2014,05,27,01,09,10.30
2014,05,27,01,10,10.30
2014,05,27,01,11,10.30
2014,05,27,01,12,10.30
2014,05,27,01,13,10.30
2014,05,27,01,14,10.30
2014,05,27,01,15,10.30
2014,05,27,01,16,10.30
2014,05,27,01,17,10.30
2014,05,27,01,18,10.20
2014,05,27,01,19,10.20
2014,05,27,01,20,10.20
2014,05,27,01,21,10.20
2014,05,27,01,22,10.20
2014,05,27,01,23,10.20
2014,05,27,01,24,10.20
2014,05,27,01,25,10.10
2014,05,27,01,26,10.10
2014,05,27,01,27,10.10
2014,05,27,01,28,10.10
2014,05,27,01,29,10.10
2014,05,27,01,30,10.10
2014,05,27,01,31,10.10
2014,05,27,01,32,10.10
2014,05,27,01,33,10.10
2014,05,27,01,34,10.10
2014,05,27,01,35,10.10
2014,05,27,01,36,10.10
2014,05,27,01,37,10.10
2014,05,27,01,38,10.10
2014,05,27,01,39,10.10
2014,05,27,01,40,10.10
2014,05,27,01,41,10.10
2014,05,27,01,42,10.10
2014,05,27,01,43,10.10
2014,05,27,01,44,10.10
2014,05,27,01,45,10.10
2014,05,27,01,46,10.00
2014,05,27,01,47,9.90
2014,05,27,01,48,9.90
2014,05,27,01,49,9.90
2014,05,27,01,50,9.90
2014,05,27,01,51,9.90
2014,05,27,01,52,9.90
2014,05,27,01,53,9.90
2014,05,27,01,54,9.90
2014,05,27,01,55,9.90
2014,05,27,01,56,9.90
2014,05,27,01,57,9.80
2014,05,27,01,58,9.80
2014,05,27,01,59,9.80
2014,05,27,02,00,9.80
2014,05,27,02,01,9.70
2014,05,27,02,02,9.70
2014,05,27,02,03,9.70
2014,05,27,02,04,9.70
2014,05,27,02,05,9.70
2014,05,27,02,06,9.70
2014,05,27,02,07,9.70
2014,05,27,02,08,9.70
2014,05,27,02,09,9.70
2014,05,27,02,10,9.70
2014,05,27,02,11,9.70
2014,05,27,02,12,9.70
2014,05,27,02,13,9.60
2014,05,27,02,14,9.60
2014,05,27,02,15,9.60
2014,05,27,02,16,9.60
2014,05,27,02,17,9.50
2014,05,27,02,18,9.50
2014,05,27,02,19,9.50
2014,05,27,02,20,9.50
2014,05,27,02,21,9.40
2014,05,27,02,22,9.40
2014,05,27,02,23,9.40
2014,05,27,02,24,9.40
2014,05,27,02,25,9.40
2014,05,27,02,26,9.40
2014,05,27,02,27,9.40
2014,05,27,02,28,9.40
2014,05,27,02,29,9.40
2014,05,27,02,30,9.40
2014,05,27,02,31,9.40
2014,05,27,02,32,9.40
2014,05,27,02,33,9.50
2014,05,27,02,34,9.50
2014,05,27,02,35,9.50
2014,05,27,02,36,9.50
2014,05,27,02,37,9.50
2014,05,27,02,38,9.50
2014,05,27,02,39,9.50
2014,05,27,02,40,9.50
2014,05,27,02,41,9.50
2014,05,27,02,42,9.50
2014,05,27,02,43,9.50
2014,05,27,02,44,9.60
2014,05,27,02,45,9.60
2014,05,27,02,46,9.60
2014,05,27,02,47,9.60
2014,05,27,02,48,9.60
2014,05,27,02,49,9.60
2014,05,27,02,50,9.60
2014,05,27,02,51,9.60
2014,05,27,02,52,9.60
2014,05,27,02,53,9.60
2014,05,27,02,54,9.60
2014,05,27,02,55,9.60
2014,05,27,02,56,9.60
2014,05,27,02,57,9.60
2014,05,27,02,58,9.60
2014,05,27,02,59,9.60
2014,05,27,03,00,9.60
2014,05,27,03,01,9.50
2014,05,27,03,02,9.50
2014,05,27,03,03,9.50
2014,05,27,03,04,9.50
2014,05,27,03,05,9.50
2014,05,27,03,06,9.50
2014,05,27,03,07,9.50
2014,05,27,03,08,9.50
2014,05,27,03,09,9.50
2014,05,27,03,10,9.50
2014,05,27,03,11,9.50
2014,05,27,03,12,9.50
2014,05,27,03,13,9.50
2014,05,27,03,14,9.50
2014,05,27,03,15,9.50
2014,05,27,03,16,9.50
2014,05,27,03,17,9.40
2014,05,27,03,18,9.40
2014,05,27,03,19,9.40
2014,05,27,03,20,9.40
2014,05,27,03,21,9.40
2014,05,27,03,22,9.40
2014,05,27,03,23,9.40
2014,05,27,03,24,9.40
2014,05,27,03,25,9.40
2014,05,27,03,26,9.40
2014,05,27,03,27,9.40
2014,05,27,03,28,9.40
2014,05,27,03,29,9.40
2014,05,27,03,30,9.40
2014,05,27,03,31,9.50
2014,05,27,03,32,9.50
2014,05,27,03,33,9.50
2014,05,27,03,34,9.50
2014,05,27,03,35,9.50
2014,05,27,03,36,9.50
2014,05,27,03,37,9.50
2014,05,27,03,38,9.50
2014,05,27,03,39,9.50
2014,05,27,03,40,9.50
2014,05,27,03,41,9.50
2014,05,27,03,42,9.50
2014,05,27,03,43,9.60
2014,05,27,03,44,9.60
2014,05,27,03,45,9.60
2014,05,27,03,46,9.60
2014,05,27,03,47,9.60
2014,05,27,03,48,9.60
2014,05,27,03,49,9.60
2014,05,27,03,50,9.60
2014,05,27,03,51,9.60
2014,05,27,03,52,9.60
2014,05,27,03,53,9.60
2014,05,27,03,54,9.60
2014,05,27,03,55,9.60
2014,05,27,03,56,9.60
2014,05,27,03,57,9.60
2014,05,27,03,58,9.60
2014,05,27,03,59,9.60
2014,05,27,04,00,9.60
2014,05,27,04,01,9.60
2014,05,27,04,02,9.60
2014,05,27,04,03,9.60
2014,05,27,04,04,9.60
2014,05,27,04,05,9.60
2014,05,27,04,06,9.60
2014,05,27,04,07,9.60
2014,05,27,04,08,9.60
2014,05,27,04,09,9.60
2014,05,27,04,10,9.60
2014,05,27,04,11,9.60
2014,05,27,04,12,9.60
2014,05,27,04,13,9.60
2014,05,27,04,14,9.60
2014,05,27,04,15,9.60
2014,05,27,04,16,9.60
2014,05,27,04,17,9.60
2014,05,27,04,18,9.60
2014,05,27,04,19,9.60
2014,05,27,04,20,9.60
2014,05,27,04,21,9.60
2014,05,27,04,22,9.60
2014,05,27,04,23,9.60
2014,05,27,04,24,9.60
2014,05,27,04,25,9.60
2014,05,27,04,26,9.50
2014,05,27,04,27,9.50
2014,05,27,04,28,9.50
2014,05,27,04,29,9.50
2014,05,27,04,30,9.50
2014,05,27,04,31,9.60
2014,05,27,04,32,9.60
2014,05,27,04,33,9.60
2014,05,27,04,34,9.60
2014,05,27,04,35,9.60
2014,05,27,04,36,9.60
2014,05,27,04,37,9.60
2014,05,27,04,38,9.60
2014,05,27,04,39,9.60
2014,05,27,04,40,9.70
2014,05,27,04,41,9.70
2014,05,27,04,42,9.70
2014,05,27,04,43,9.70
2014,05,27,04,44,9.70
2014,05,27,04,45,9.70
2014,05,27,04,46,9.70
2014,05,27,04,47,9.70
2014,05,27,04,48,9.70
2014,05,27,04,49,9.70
2014,05,27,04,50,9.70
2014,05,27,04,51,9.70
2014,05,27,04,52,9.70
2014,05,27,04,53,9.70
2014,05,27,04,54,9.70
2014,05,27,04,55,9.70
2014,05,27,04,56,9.70
2014,05,27,04,57,9.70
2014,05,27,04,58,9.70
2014,05,27,04,59,9.70
2014,05,27,05,00,9.70
2014,05,27,05,01,9.70
2014,05,27,05,02,9.70
2014,05,27,05,03,9.70
2014,05,27,05,04,9.70
2014,05,27,05,05,9.70
2014,05,27,05,06,9.70
2014,05,27,05,07,9.70
2014,05,27,05,08,9.70
2014,05,27,05,09,9.70
2014,05,27,05,10,9.70
2014,05,27,05,11,9.70
2014,05,27,05,12,9.70
2014,05,27,05,13,9.80
2014,05,27,05,14,9.80
2014,05,27,05,15,9.80
2014,05,27,05,16,9.80
2014,05,27,05,17,9.80
2014,05,27,05,18,9.80
2014,05,27,05,19,9.80
2014,05,27,05,20,9.80
2014,05,27,05,21,9.80
2014,05,27,05,22,9.80
2014,05,27,05,23,9.80
2014,05,27,05,24,9.80
2014,05,27,05,25,9.80
2014,05,27,05,26,9.80
2014,05,27,05,27,9.80
2014,05,27,05,28,9.90
2014,05,27,05,29,9.90
2014,05,27,05,30,9.90
2014,05,27,05,31,9.90
2014,05,27,05,32,9.90
2014,05,27,05,33,9.90
2014,05,27,05,34,9.90
2014,05,27,05,35,9.90
2014,05,27,05,36,9.90
2014,05,27,05,37,9.90
2014,05,27,05,38,9.90
2014,05,27,05,39,9.90
2014,05,27,05,40,9.90
2014,05,27,05,41,9.90
2014,05,27,05,42,9.90
2014,05,27,05,43,9.90
2014,05,27,05,44,9.90
2014,05,27,05,45,9.90
2014,05,27,05,46,9.90
2014,05,27,05,47,9.90
2014,05,27,05,48,9.90
2014,05,27,05,49,9.90
2014,05,27,05,50,9.90
2014,05,27,05,51,9.90
2014,05,27,05,52,10.00
2014,05,27,05,53,10.10
2014,05,27,05,54,10.10
2014,05,27,05,55,10.10
2014,05,27,05,56,10.10
2014,05,27,05,57,10.10
2014,05,27,05,58,10.10
2014,05,27,05,59,10.10
2014,05,27,06,00,10.10
2014,05,27,06,01,10.10
2014,05,27,06,02,10.10
2014,05,27,06,03,10.10
2014,05,27,06,04,10.10
2014,05,27,06,05,10.10
2014,05,27,06,06,10.10
2014,05,27,06,07,10.10
2014,05,27,06,08,10.10
2014,05,27,06,09,10.10
2014,05,27,06,10,10.10
2014,05,27,06,11,10.10
2014,05,27,06,12,10.10
2014,05,27,06,13,10.10
2014,05,27,06,14,10.10
2014,05,27,06,15,10.10
2014,05,27,06,16,10.10
2014,05,27,06,17,10.10
2014,05,27,06,18,10.10
2014,05,27,06,19,10.10
2014,05,27,06,20,10.10
2014,05,27,06,21,10.10
2014,05,27,06,22,10.10
2014,05,27,06,23,10.10
2014,05,27,06,24,10.10
2014,05,27,06,25,10.10
2014,05,27,06,26,10.20
2014,05,27,06,27,10.20
2014,05,27,06,28,10.20
2014,05,27,06,29,10.20
2014,05,27,06,30,10.20
2014,05,27,06,31,10.20
2014,05,27,06,32,10.20
2014,05,27,06,33,10.20
2014,05,27,06,34,10.20
2014,05,27,06,35,10.20
2014,05,27,06,36,10.30
2014,05,27,06,37,10.30
2014,05,27,06,38,10.30
2014,05,27,06,39,10.30
2014,05,27,06,40,10.30
2014,05,27,06,41,10.30
2014,05,27,06,42,10.40
2014,05,27,06,43,10.40
2014,05,27,06,44,10.40
2014,05,27,06,45,10.40
2014,05,27,06,46,10.40
2014,05,27,06,47,10.40
2014,05,27,06,48,10.40
2014,05,27,06,49,10.40
2014,05,27,06,50,10.40
2014,05,27,06,51,10.40
2014,05,27,06,52,10.40
2014,05,27,06,53,10.50
2014,05,27,06,54,10.60
2014,05,27,06,55,10.60
2014,05,27,06,56,10.60
2014,05,27,06,57,10.60
2014,05,27,06,58,10.60
2014,05,27,06,59,10.60
2014,05,27,07,00,10.60
2014,05,27,07,01,10.60
2014,05,27,07,02,10.70
2014,05,27,07,03,10.70
2014,05,27,07,04,10.70
2014,05,27,07,05,10.80
2014,05,27,07,06,10.80
2014,05,27,07,07,10.80
2014,05,27,07,08,10.90
2014,05,27,07,09,10.90
2014,05,27,07,10,10.90
2014,05,27,07,11,10.90
2014,05,27,07,12,10.90
2014,05,27,07,13,11.00
2014,05,27,07,14,11.10
2014,05,27,07,15,11.10
2014,05,27,07,16,11.10
2014,05,27,07,17,11.20
2014,05,27,07,18,11.20
2014,05,27,07,19,11.20
2014,05,27,07,20,11.30
2014,05,27,07,21,11.30
2014,05,27,07,22,11.40
2014,05,27,07,23,11.40
2014,05,27,07,24,11.40
2014,05,27,07,25,11.40
2014,05,27,07,26,11.40
2014,05,27,07,27,11.60
2014,05,27,07,28,11.60
2014,05,27,07,29,11.60
2014,05,27,07,30,11.60
2014,05,27,07,31,11.60
2014,05,27,07,32,11.60
2014,05,27,07,33,11.60
2014,05,27,07,34,11.60
2014,05,27,07,35,11.70
2014,05,27,07,36,11.70
2014,05,27,07,37,11.70
2014,05,27,07,38,11.80
2014,05,27,07,39,11.80
2014,05,27,07,40,11.80
2014,05,27,07,41,11.80
2014,05,27,07,42,11.80
2014,05,27,07,43,11.80
2014,05,27,07,44,11.90
2014,05,27,07,45,11.90
2014,05,27,07,46,11.90
2014,05,27,07,47,12.00
2014,05,27,07,48,12.00
2014,05,27,07,49,12.10
2014,05,27,07,50,12.10
2014,05,27,07,51,12.10
2014,05,27,07,52,12.20
2014,05,27,07,53,12.20
2014,05,27,07,54,12.20
2014,05,27,07,55,12.20
2014,05,27,07,56,12.20
2014,05,27,07,57,12.20
2014,05,27,07,58,12.20
2014,05,27,07,59,12.20
2014,05,27,08,00,12.30
2014,05,27,08,01,12.30
2014,05,27,08,02,12.30
2014,05,27,08,03,12.30
2014,05,27,08,04,12.30
2014,05,27,08,05,12.30
2014,05,27,08,06,12.30
2014,05,27,08,07,12.30
2014,05,27,08,08,12.30
2014,05,27,08,09,12.30
2014,05,27,08,10,12.30
2014,05,27,08,11,12.30
2014,05,27,08,12,12.30
2014,05,27,08,13,12.40
2014,05,27,08,14,12.40
2014,05,27,08,15,12.40
2014,05,27,08,16,12.40
2014,05,27,08,17,12.50
2014,05,27,08,18,12.50
2014,05,27,08,19,12.50
2014,05,27,08,20,12.50
2014,05,27,08,21,12.50
2014,05,27,08,22,12.50
2014,05,27,08,23,12.50
2014,05,27,08,24,12.50
2014,05,27,08,25,12.40
2014,05,27,08,26,12.40
2014,05,27,08,27,12.40
2014,05,27,08,28,12.40
2014,05,27,08,29,12.40
2014,05,27,08,30,12.30
2014,05,27,08,31,12.30
2014,05,27,08,32,12.30
2014,05,27,08,33,12.30
2014,05,27,08,34,12.30
2014,05,27,08,35,12.30
2014,05,27,08,36,12.30
2014,05,27,08,37,12.30
2014,05,27,08,38,12.30
2014,05,27,08,39,12.30
2014,05,27,08,40,12.30
2014,05,27,08,41,12.30
2014,05,27,08,42,12.30
2014,05,27,08,43,12.30
2014,05,27,08,44,12.30
2014,05,27,08,45,12.30
2014,05,27,08,46,12.30
2014,05,27,08,47,12.30
2014,05,27,08,48,12.30
2014,05,27,08,49,12.30
2014,05,27,08,50,12.30
2014,05,27,08,51,12.30
2014,05,27,08,52,12.40
2014,05,27,08,53,12.40
2014,05,27,08,54,12.40
2014,05,27,08,55,12.40
2014,05,27,08,56,12.40
2014,05,27,08,57,12.50
2014,05,27,08,58,12.50
2014,05,27,08,59,12.50
2014,05,27,09,00,12.60
2014,05,27,09,01,12.60
2014,05,27,09,02,12.70
2014,05,27,09,03,12.70
2014,05,27,09,04,12.70
2014,05,27,09,05,12.70
2014,05,27,09,06,12.70
2014,05,27,09,07,12.70
2014,05,27,09,08,12.70
2014,05,27,09,09,12.70
2014,05,27,09,10,12.80
2014,05,27,09,11,12.80
2014,05,27,09,12,12.80
2014,05,27,09,13,12.80
2014,05,27,09,14,12.70
2014,05,27,09,15,12.70
2014,05,27,09,16,12.70
2014,05,27,09,17,12.80
2014,05,27,09,18,12.80
2014,05,27,09,19,12.70
2014,05,27,09,20,12.70
2014,05,27,09,21,12.70
2014,05,27,09,22,12.70
2014,05,27,09,23,12.80
2014,05,27,09,24,12.80
2014,05,27,09,25,12.90
2014,05,27,09,26,12.90
2014,05,27,09,27,13.00
2014,05,27,09,28,13.00
2014,05,27,09,29,13.00
2014,05,27,09,30,13.00
2014,05,27,09,31,13.10
2014,05,27,09,32,13.10
2014,05,27,09,33,13.10
2014,05,27,09,34,13.10
2014,05,27,09,35,13.10
2014,05,27,09,36,13.10
2014,05,27,09,37,13.20
2014,05,27,09,38,13.20
2014,05,27,09,39,13.20
2014,05,27,09,40,13.30
2014,05,27,09,41,13.30
2014,05,27,09,42,13.40
2014,05,27,09,43,13.50
2014,05,27,09,44,13.50
2014,05,27,09,45,13.60
2014,05,27,09,46,13.70
2014,05,27,09,47,13.80
2014,05,27,09,48,13.90
2014,05,27,09,49,13.90
2014,05,27,09,50,14.00
2014,05,27,09,51,14.10
2014,05,27,09,52,14.10
2014,05,27,09,53,14.10
2014,05,27,09,54,14.10
2014,05,27,09,55,14.10
2014,05,27,09,56,14.10
2014,05,27,09,57,14.10
2014,05,27,09,58,14.10
2014,05,27,09,59,14.10
2014,05,27,10,00,14.10
2014,05,27,10,01,14.10
2014,05,27,10,02,14.20
2014,05,27,10,03,14.20
2014,05,27,10,04,14.20
2014,05,27,10,05,14.30
2014,05,27,10,06,14.40
2014,05,27,10,07,14.50
2014,05,27,10,08,14.60
2014,05,27,10,09,14.60
2014,05,27,10,10,14.70
2014,05,27,10,11,14.70
2014,05,27,10,12,14.80
2014,05,27,10,13,14.80
2014,05,27,10,14,14.70
2014,05,27,10,15,14.60
2014,05,27,10,16,14.60
2014,05,27,10,17,14.50
2014,05,27,10,18,14.50
2014,05,27,10,19,14.60
2014,05,27,10,20,14.70
2014,05,27,10,21,14.70
2014,05,27,10,22,14.70
2014,05,27,10,23,14.70
2014,05,27,10,24,14.70
2014,05,27,10,25,14.70
2014,05,27,10,26,14.70
2014,05,27,10,27,14.60
2014,05,27,10,28,14.60
2014,05,27,10,29,14.60
2014,05,27,10,30,14.70
2014,05,27,10,31,14.80
2014,05,27,10,32,14.80
2014,05,27,10,33,14.80
2014,05,27,10,34,14.80
2014,05,27,10,35,14.80
2014,05,27,10,36,14.90
2014,05,27,10,37,15.00
2014,05,27,10,38,15.10
2014,05,27,10,39,15.10
2014,05,27,10,40,15.00
2014,05,27,10,41,15.10
2014,05,27,10,42,15.10
2014,05,27,10,43,15.20
2014,05,27,10,44,15.30
2014,05,27,10,45,15.40
2014,05,27,10,46,15.30
2014,05,27,10,47,15.30
2014,05,27,10,48,15.30
2014,05,27,10,49,15.30
2014,05,27,10,50,15.30
2014,05,27,10,51,15.20
2014,05,27,10,52,15.20
2014,05,27,10,53,15.20
2014,05,27,10,54,15.20
2014,05,27,10,55,15.30
2014,05,27,10,56,15.30
2014,05,27,10,57,15.40
2014,05,27,10,58,15.50
2014,05,27,10,59,15.50
2014,05,27,11,00,15.50
2014,05,27,11,01,15.40
2014,05,27,11,02,15.30
2014,05,27,11,03,15.30
2014,05,27,11,04,15.30
2014,05,27,11,05,15.50
2014,05,27,11,06,15.50
2014,05,27,11,07,15.50
2014,05,27,11,08,15.60
2014,05,27,11,09,15.60
2014,05,27,11,10,15.50
2014,05,27,11,11,15.50
2014,05,27,11,12,15.50
2014,05,27,11,13,15.40
2014,05,27,11,14,15.20
2014,05,27,11,15,15.10
2014,05,27,11,16,15.00
2014,05,27,11,17,15.10
2014,05,27,11,18,15.10
2014,05,27,11,19,15.10
2014,05,27,11,20,15.20
2014,05,27,11,21,15.10
2014,05,27,11,22,15.00
2014,05,27,11,23,15.00
2014,05,27,11,24,15.10
2014,05,27,11,25,15.30
2014,05,27,11,26,15.40
2014,05,27,11,27,15.40
2014,05,27,11,28,15.50
2014,05,27,11,29,15.70
2014,05,27,11,30,15.60
2014,05,27,11,31,15.60
2014,05,27,11,32,15.50
2014,05,27,11,33,15.30
2014,05,27,11,34,15.20
2014,05,27,11,35,15.20
2014,05,27,11,36,15.20
2014,05,27,11,37,15.10
2014,05,27,11,38,15.10
2014,05,27,11,39,15.10
2014,05,27,11,40,15.10
2014,05,27,11,41,15.30
2014,05,27,11,42,15.40
2014,05,27,11,43,15.60
2014,05,27,11,44,15.70
2014,05,27,11,45,15.70
2014,05,27,11,46,15.80
2014,05,27,11,47,15.90
2014,05,27,11,48,16.00
2014,05,27,11,49,16.10
2014,05,27,11,50,16.10
2014,05,27,11,51,16.20
2014,05,27,11,52,16.30
2014,05,27,11,53,16.30
2014,05,27,11,54,16.30
2014,05,27,11,55,16.40
2014,05,27,11,56,16.40
2014,05,27,11,57,16.30
2014,05,27,11,58,16.30
2014,05,27,11,59,16.20
2014,05,27,12,00,16.20
2014,05,27,12,01,16.20
2014,05,27,12,02,16.30
2014,05,27,12,03,16.40
2014,05,27,12,04,16.50
2014,05,27,12,05,16.70
2014,05,27,12,06,16.70
2014,05,27,12,07,16.80
2014,05,27,12,08,16.80
2014,05,27,12,09,16.80
2014,05,27,12,10,16.80
2014,05,27,12,11,16.80
2014,05,27,12,12,16.80
2014,05,27,12,13,16.90
2014,05,27,12,14,16.90
2014,05,27,12,15,17.00
2014,05,27,12,16,17.00
2014,05,27,12,17,17.00
2014,05,27,12,18,17.10
2014,05,27,12,19,17.20
2014,05,27,12,20,17.20
2014,05,27,12,21,17.20
2014,05,27,12,22,17.20
2014,05,27,12,23,17.20
2014,05,27,12,24,17.30
2014,05,27,12,25,17.30
2014,05,27,12,26,17.30
2014,05,27,12,27,17.30
2014,05,27,12,28,17.30
2014,05,27,12,29,17.30
2014,05,27,12,30,17.30
2014,05,27,12,31,17.20
2014,05,27,12,32,17.10
2014,05,27,12,33,17.00
2014,05,27,12,34,16.90
2014,05,27,12,35,16.80
2014,05,27,12,36,16.80
2014,05,27,12,37,16.80
2014,05,27,12,38,16.80
2014,05,27,12,39,16.80
2014,05,27,12,40,16.80
2014,05,27,12,41,16.80
2014,05,27,12,42,16.80
2014,05,27,12,43,16.70
2014,05,27,12,44,16.60
2014,05,27,12,45,16.50
2014,05,27,12,46,16.40
2014,05,27,12,47,16.30
2014,05,27,12,48,16.20
2014,05,27,12,49,16.10
2014,05,27,12,50,16.10
2014,05,27,12,51,16.10
2014,05,27,12,52,16.10
2014,05,27,12,53,16.00
2014,05,27,12,54,15.90
2014,05,27,12,55,15.90
2014,05,27,12,56,15.80
2014,05,27,12,57,15.90
2014,05,27,12,58,15.90
2014,05,27,12,59,16.00
2014,05,27,13,00,16.10
2014,05,27,13,01,16.20
2014,05,27,13,02,16.20
2014,05,27,13,03,16.30
2014,05,27,13,04,16.40
2014,05,27,13,05,16.40
2014,05,27,13,06,16.50
2014,05,27,13,07,16.60
2014,05,27,13,08,16.70
2014,05,27,13,09,16.70
2014,05,27,13,10,16.80
2014,05,27,13,11,16.80
2014,05,27,13,12,16.70
2014,05,27,13,13,16.70
2014,05,27,13,14,16.70
2014,05,27,13,15,16.70
2014,05,27,13,16,16.70
2014,05,27,13,17,16.70
2014,05,27,13,18,16.80
2014,05,27,13,19,16.80
2014,05,27,13,20,16.90
2014,05,27,13,21,16.90
2014,05,27,13,22,16.90
2014,05,27,13,23,16.90
2014,05,27,13,24,16.90
2014,05,27,13,25,16.90
2014,05,27,13,26,17.00
2014,05,27,13,27,17.10
2014,05,27,13,28,17.20
2014,05,27,13,29,17.30
2014,05,27,13,30,17.30
2014,05,27,13,31,17.30
2014,05,27,13,32,17.30
2014,05,27,13,33,17.40
2014,05,27,13,34,17.50
2014,05,27,13,35,17.50
2014,05,27,13,36,17.60
2014,05,27,13,37,17.60
2014,05,27,13,38,17.70
2014,05,27,13,39,17.70
2014,05,27,13,40,17.80
2014,05,27,13,41,17.60
2014,05,27,13,42,17.40
2014,05,27,13,43,17.20
2014,05,27,13,44,17.10
2014,05,27,13,45,16.90
2014,05,27,13,46,16.70
2014,05,27,13,47,16.60
2014,05,27,13,48,16.60
2014,05,27,13,49,16.60
2014,05,27,13,50,16.60
2014,05,27,13,51,16.50
2014,05,27,13,52,16.40
2014,05,27,13,53,16.40
2014,05,27,13,54,16.40
2014,05,27,13,55,16.40
2014,05,27,13,56,16.40
2014,05,27,13,57,16.40
2014,05,27,13,58,16.40
2014,05,27,13,59,16.40
2014,05,27,14,00,16.40
2014,05,27,14,01,16.50
2014,05,27,14,02,16.60
2014,05,27,14,03,16.70
2014,05,27,14,04,16.70
2014,05,27,14,05,16.90
2014,05,27,14,06,17.00
2014,05,27,14,07,17.20
2014,05,27,14,08,17.40
2014,05,27,14,09,17.70
2014,05,27,14,10,17.80
2014,05,27,14,11,17.90
2014,05,27,14,12,17.80
2014,05,27,14,13,17.70
2014,05,27,14,14,17.70
2014,05,27,14,15,17.80
2014,05,27,14,16,17.80
2014,05,27,14,17,17.90
2014,05,27,14,18,17.90
2014,05,27,14,19,17.90
2014,05,27,14,20,17.90
2014,05,27,14,21,17.90
2014,05,27,14,22,17.90
2014,05,27,14,23,17.80
2014,05,27,14,24,17.60
2014,05,27,14,25,17.60
2014,05,27,14,26,17.70
2014,05,27,14,27,17.80
2014,05,27,14,28,17.80
2014,05,27,14,29,17.90
2014,05,27,14,30,17.90
2014,05,27,14,31,18.00
2014,05,27,14,32,18.10
2014,05,27,14,33,18.00
2014,05,27,14,34,17.80
2014,05,27,14,35,17.80
2014,05,27,14,36,17.80
2014,05,27,14,37,17.90
2014,05,27,14,38,17.90
2014,05,27,14,39,18.00
2014,05,27,14,40,18.10
2014,05,27,14,41,18.20
2014,05,27,14,42,18.30
2014,05,27,14,43,18.30
2014,05,27,14,44,18.30
2014,05,27,14,45,18.30
2014,05,27,14,46,18.30
2014,05,27,14,47,18.20
2014,05,27,14,48,18.00
2014,05,27,14,49,17.90
2014,05,27,14,50,17.90
2014,05,27,14,51,17.90
2014,05,27,14,52,17.90
2014,05,27,14,53,17.90
2014,05,27,14,54,17.90
2014,05,27,14,55,17.80
2014,05,27,14,56,17.70
2014,05,27,14,57,17.60
2014,05,27,14,58,17.50
2014,05,27,14,59,17.50
2014,05,27,15,00,17.50
2014,05,27,15,01,17.50
2014,05,27,15,02,17.60
2014,05,27,15,03,17.70
2014,05,27,15,04,17.80
2014,05,27,15,05,17.80
2014,05,27,15,06,17.70
2014,05,27,15,07,17.60
2014,05,27,15,08,17.60
2014,05,27,15,09,17.60
2014,05,27,15,10,17.50
2014,05,27,15,11,17.50
2014,05,27,15,12,17.50
2014,05,27,15,13,17.50
2014,05,27,15,14,17.50
2014,05,27,15,15,17.60
2014,05,27,15,16,17.70
2014,05,27,15,17,17.70
2014,05,27,15,18,17.90
2014,05,27,15,19,17.90
2014,05,27,15,20,17.80
2014,05,27,15,21,17.70
2014,05,27,15,22,17.60
2014,05,27,15,23,17.70
2014,05,27,15,24,17.70
2014,05,27,15,25,17.70
2014,05,27,15,26,17.50
2014,05,27,15,27,17.60
2014,05,27,15,28,17.50
2014,05,27,15,29,17.40
2014,05,27,15,30,17.30
2014,05,27,15,31,17.30
2014,05,27,15,32,17.20
2014,05,27,15,33,17.10
2014,05,27,15,34,17.00
2014,05,27,15,35,16.90
2014,05,27,15,36,16.80
2014,05,27,15,37,16.90
2014,05,27,15,38,17.00
2014,05,27,15,39,17.10
2014,05,27,15,40,17.20
2014,05,27,15,41,17.30
2014,05,27,15,42,17.30
2014,05,27,15,43,17.30
2014,05,27,15,44,17.30
2014,05,27,15,45,17.30
2014,05,27,15,46,17.30
2014,05,27,15,47,17.30
2014,05,27,15,48,17.40
2014,05,27,15,49,17.40
2014,05,27,15,50,17.30
2014,05,27,15,51,17.30
2014,05,27,15,52,17.20
2014,05,27,15,53,17.20
2014,05,27,15,54,17.20
2014,05,27,15,55,17.30
2014,05,27,15,56,17.30
2014,05,27,15,57,17.30
2014,05,27,15,58,17.30
2014,05,27,15,59,17.30
2014,05,27,16,00,17.30
2014,05,27,16,01,17.40
2014,05,27,16,02,17.50
2014,05,27,16,03,17.60
2014,05,27,16,04,17.70
2014,05,27,16,05,17.90
2014,05,27,16,06,18.00
2014,05,27,16,07,18.20
2014,05,27,16,08,18.30
2014,05,27,16,09,18.40
2014,05,27,16,10,18.50
2014,05,27,16,11,18.60
2014,05,27,16,12,18.60
2014,05,27,16,13,18.60
2014,05,27,16,14,18.60
2014,05,27,16,15,18.60
2014,05,27,16,16,18.50
2014,05,27,16,17,18.60
2014,05,27,16,18,18.60
2014,05,27,16,19,18.60
2014,05,27,16,20,18.60
2014,05,27,16,21,18.50
2014,05,27,16,22,18.40
2014,05,27,16,23,18.40
2014,05,27,16,24,18.30
2014,05,27,16,25,18.30
2014,05,27,16,26,18.40
2014,05,27,16,27,18.40
2014,05,27,16,28,18.50
2014,05,27,16,29,18.50
2014,05,27,16,30,18.60
2014,05,27,16,31,18.60
2014,05,27,16,32,18.70
2014,05,27,16,33,18.80
2014,05,27,16,34,18.80
2014,05,27,16,35,18.90
2014,05,27,16,36,18.90
2014,05,27,16,37,19.00
2014,05,27,16,38,19.10
2014,05,27,16,39,19.10
2014,05,27,16,40,19.10
2014,05,27,16,41,19.00
2014,05,27,16,42,18.90
2014,05,27,16,43,18.70
2014,05,27,16,44,18.50
2014,05,27,16,45,18.40
2014,05,27,16,46,18.20
2014,05,27,16,47,18.00
2014,05,27,16,48,18.00
2014,05,27,16,49,18.00
2014,05,27,16,50,17.90
2014,05,27,16,51,17.70
2014,05,27,16,52,17.70
2014,05,27,16,53,17.60
2014,05,27,16,54,17.60
2014,05,27,16,55,17.70
2014,05,27,16,56,17.60
2014,05,27,16,57,17.50
2014,05,27,16,58,17.40
2014,05,27,16,59,17.30
2014,05,27,17,00,17.30
2014,05,27,17,01,17.30
2014,05,27,17,02,17.40
2014,05,27,17,03,17.40
2014,05,27,17,04,17.30
2014,05,27,17,05,17.30
2014,05,27,17,06,17.40
2014,05,27,17,07,17.50
2014,05,27,17,08,17.50
2014,05,27,17,09,17.60
2014,05,27,17,10,17.70
2014,05,27,17,11,17.60
2014,05,27,17,12,17.70
2014,05,27,17,13,17.70
2014,05,27,17,14,17.70
2014,05,27,17,15,17.70
2014,05,27,17,16,17.80
2014,05,27,17,17,17.90
2014,05,27,17,18,18.00
2014,05,27,17,19,18.10
2014,05,27,17,20,18.10
2014,05,27,17,21,18.00
2014,05,27,17,22,17.90
2014,05,27,17,23,17.80
2014,05,27,17,24,17.70
2014,05,27,17,25,17.60
2014,05,27,17,26,17.60
2014,05,27,17,27,17.60
2014,05,27,17,28,17.50
2014,05,27,17,29,17.50
2014,05,27,17,30,17.40